Wind_Speed
7 8 7 10 12 13 13 12 9 11 14 11 10 8 11 13 12 11 12 10 12 11 13 15 16 15 17 17 15 17 18 17 18 19 11 7 9 13 16 19 17 17 19 20
3 3 10 13 15 12 12 11 10 11 13 8 12 13 12 12 12 12 11 12 11 13 15 15 17 19 19 21 19 17 20 21 25 12 11 10 9 13 15 16 16 18 18 19
2 9 9 2 2 7 9 11 9 6 8 12 8 10 12 10 10 9 9 11 12 13 17 16 18 21 24 24 24 17 22 22 18 17 15 13 10 10 14 13 17 16 18 17
2 5 2 5 12 7 7 8 8 10 8 5 11 13 15 10 7 8 11 11 12 16 15 17 21 23 23 25 28 30 27 28 17 15 16 14 9 9 11 12 16 18 16 11
1 3 9 8 4 3 5 10 9 7 10 12 15 13 3 5 10 10 11 14 14 18 19 21 20 22 25 28 29 28 28 29 26 19 12 13 9 11 10 14 17 13 14 14
2 2 3 2 5 4 7 7 9 7 8 9 11 6 6 13 13 13 16 17 20 21 22 20 21 24 24 24 27 29 23 22 24 23 16 9 7 13 13 16 13 12 13 14
5 4 6 8 4 2 3 2 10 7 6 7 6 4 7 10 11 16 18 21 23 23 21 20 22 23 22 24 25 23 26 24 22 20 12 7 6 12 13 13 13 11 14 18
3 4 6 1 1 1 6 11 7 4 4 4 4 9 9 10 12 17 19 22 23 24 22 22 22 22 21 22 22 24 24 23 20 20 15 11 12 14 14 12 10 13 16 19
9 5 7 3 4 4 1 2 4 4 1 4 8 8 9 10 12 17 21 23 25 22 23 25 22 21 20 20 22 20 19 20 18 16 16 14 11 13 13 10 11 12 15 17
3 7 8 7 5 9 7 5 2 2 5 9 7 8 10 10 13 17 20 22 22 24 24 21 22 19 20 20 19 15 18 18 18 18 13 13 12 15 12 12 9 11 13 14
8 12 9 2 7 6 4 6 2 8 5 6 7 9 12 11 15 17 20 19 24 22 20 24 25 21 21 18 12 15 16 17 17 15 15 13 13 9 8 10 10 10 11 11
6 5 1 3 5 4 7 4 8 2 5 8 12 10 16 15 19 20 20 23 22 23 23 22 23 22 18 12 10 13 14 15 15 15 15 12 12 12 14 15 12 14 12 11
4 8 9 7 3 4 6 7 2 4 7 9 13 17 17 17 18 23 22 23 23 22 21 22 21 19 15 9 9 10 11 13 13 12 9 9 10 11 12 14 13 14 11 10
5 7 4 3 4 5 3 3 2 6 10 14 15 15 17 17 20 20 22 23 24 21 18 21 20 18 9 8 7 10 9 10 10 8 8 10 11 13 12 12 14 14 11 9
4 3 5 8 7 7 3 3 5 7 11 11 14 15 16 17 20 21 22 23 21 19 20 20 18 19 16 11 10 13 12 8 8 11 10 10 11 11 11 12 13 14 12 8
6 7 10 8 4 2 3 5 6 8 10 12 12 12 15 19 19 20 19 20 22 22 22 20 21 20 13 11 12 13 12 8 12 10 10 10 8 10 11 11 11 13 12 7
8 8 6 2 1 3 5 7 8 10 10 12 11 14 16 17 17 18 19 20 23 26 24 22 21 15 12 10 12 12 12 6 10 11 12 9 10 11 10 10 11 12 12 10
6 8 6 2 3 4 4 7 6 8 9 12 19 17 17 15 15 20 21 23 24 24 23 22 18 13 11 10 11 10 11 12 12 11 11 10 9 11 14 13 12 11 10 11
7 5 3 3 5 5 4 7 8 12 17 16 17 17 17 19 17 19 20 21 22 20 20 15 15 13 11 9 9 10 11 11 12 13 14 13 11 11 13 12 13 10 12 11
4 4 5 5 5 6 8 12 14 14 16 15 17 19 16 15 18 20 21 22 24 24 18 18 11 13 10 9 10 9 10 12 13 14 14 13 12 12 10 13 14 13 11 11
4 5 5 5 9 10 13 16 15 16 17 17 17 16 17 19 20 20 19 17 22 20 17 12 13 14 12 14 12 11 12 13 12 13 13 12 12 12 11 10 13 13 11 10
4 6 7 9 11 14 15 16 15 16 20 18 13 17 18 18 20 20 21 24 23 17 17 12 11 13 13 13 10 12 14 14 13 13 14 14 13 11 10 11 13 13 12 11
9 11 12 12 13 16 15 17 22 19 16 14 16 18 19 19 20 17 18 20 17 18 17 14 14 14 14 16 16 16 15 16 16 15 15 16 15 15 13 14 14 14 14 13
12 13 14 14 14 16 14 18 17 16 16 19 16 20 23 19 18 18 19 26 24 22 18 16 16 15 16 17 18 16 16 17 16 17 17 16 17 17 17 16 14 14 14 14
14 15 15 16 15 15 18 21 13 13 11 10 18 22 20 19 20 24 24 26 24 21 19 18 18 18 19 21 20 18 19 18 17 16 16 15 17 17 16 15 16 15 15 15
15 13 14 15 17 18 19 17 14 15 10 13 16 19 21 22 23 24 24 24 23 22 21 21 22 22 23 24 20 19 20 20 17 17 17 16 16 18 19 18 17 15 16 17
15 15 15 15 16 18 19 19 17 11 9 15 19 19 18 23 23 23 23 23 23 21 22 23 24 25 25 25 23 22 20 20 19 18 17 16 17 18 18 18 17 17 16 16
Wind_Direction
323 318 310 305 298 292 281 279 266 278 286 323 22 343 33 24 1 346 345 2 350 336 320 308 315 332 318 313 308 307 301 294 289 300 300 312 313 311 308 309 315 323 324 321
263 317 344 304 302 286 279 298 292 320 310 8 50 31 17 354 333 337 13 348 333 317 318 323 325 322 321 312 295 283 319 319 299 313 289 280 290 296 303 307 323 319 317 320
268 346 316 338 260 332 321 320 315 296 282 45 11 7 360 338 346 359 347 324 321 319 319 329 327 329 317 320 322 314 291 300 316 303 285 267 270 289 300 316 315 315 315 317
286 317 352 25 337 305 340 339 326 318 64 66 11 357 337 50 15 344 330 323 309 300 322 325 326 313 331 335 331 329 318 307 312 294 280 266 281 301 303 317 315 311 312 330
254 279 295 296 80 24 2 312 326 21 24 2 0 335 10 68 360 336 315 297 308 322 318 320 328 346 346 338 325 326 331 350 328 322 295 290 307 321 319 318 309 324 328 331
134 239 256 352 60 56 312 277 52 16 359 9 342 338 332 352 329 320 319 327 321 322 326 338 349 349 340 333 334 329 352 357 357 352 357 2 8 294 317 314 337 346 337 333
188 248 281 274 21 337 254 25 356 4 20 355 335 338 316 294 302 330 322 317 330 331 339 347 346 337 331 331 327 342 351 344 338 327 326 349 318 286 308 342 336 356 347 339
203 227 254 335 279 237 341 330 338 69 20 326 301 287 299 329 330 317 325 329 334 339 340 343 334 328 328 329 345 343 338 338 340 334 315 298 307 322 320 338 4 360 344 333
187 213 215 326 159 115 58 39 64 344 320 286 281 308 336 320 317 327 330 336 338 338 337 322 320 326 340 347 345 340 338 331 331 326 320 325 308 324 348 6 14 355 340 336
191 253 274 311 59 91 86 73 80 159 274 261 317 337 311 318 329 333 339 333 339 332 315 319 331 350 351 347 340 336 333 329 328 324 329 333 355 353 10 2 352 337 333 334
286 279 277 339 100 110 85 99 157 245 263 333 314 310 330 328 330 333 327 330 325 311 329 335 337 348 344 335 335 336 333 329 328 351 350 0 347 0 7 349 334 328 320 323
258 305 282 57 105 79 106 163 229 353 338 314 331 327 336 339 336 331 335 325 326 329 332 331 336 332 325 321 334 332 328 327 338 337 337 340 339 344 335 331 331 325 317 318
342 51 79 105 116 146 170 192 93 351 303 328 336 349 342 335 330 333 329 327 327 325 333 332 323 323 321 315 329 310 312 315 321 325 339 338 343 340 328 324 328 322 314 319
104 132 130 164 154 161 136 166 207 317 335 354 344 343 334 336 329 327 322 324 321 327 326 321 318 325 325 311 308 310 300 310 319 321 321 317 320 316 309 311 320 327 336 325
136 194 159 175 213 178 194 6 341 344 348 343 349 335 336 329 322 318 322 321 321 312 307 311 309 309 307 305 304 290 277 280 302 307 299 303 309 311 310 310 317 323 334 343
198 177 156 173 133 78 7 353 347 339 341 340 330 333 325 318 315 314 312 322 324 313 307 304 304 305 291 289 298 301 304 299 301 296 292 294 302 309 304 309 316 318 324 328
165 166 109 124 70 5 345 348 340 341 318 314 318 317 315 314 309 307 313 310 313 309 307 300 299 297 275 276 288 287 297 317 303 281 282 283 298 298 307 304 302 307 322 323
135 105 105 69 354 331 344 18 332 304 300 307 309 313 310 301 296 309 309 314 313 305 307 299 293 281 264 269 279 287 302 298 296 291 281 275 278 302 295 286 288 300 314 316
110 103 64 350 346 2 338 307 308 305 303 307 304 295 296 296 301 309 313 311 303 299 308 306 280 257 245 268 268 277 286 287 287 289 286 282 274 286 288 292 296 296 301 299
58 33 5 334 335 316 297 295 299 298 296 299 301 300 294 309 320 314 309 302 294 293 310 295 259 249 247 261 263 268 278 276 285 286 279 278 269 278 289 297 291 284 286 290
350 315 303 287 287 289 289 297 300 295 300 300 299 299 300 310 311 308 302 299 302 312 305 280 252 256 257 261 248 266 268 268 284 285 283 282 283 277 276 295 298 298 291 293
287 307 300 285 282 288 293 297 290 286 294 301 301 301 297 298 306 312 306 291 298 318 313 277 261 255 252 267 263 272 277 269 269 287 288 284 284 288 290 294 296 296 295 289
306 299 293 282 275 280 286 283 291 290 282 281 298 300 288 286 293 300 301 310 310 312 305 277 267 260 260 266 266 269 271 271 269 267 273 275 277 275 271 287 290 291 295 292
284 283 282 286 286 289 282 283 279 271 272 281 287 308 303 283 286 303 292 312 307 308 296 282 269 258 262 264 265 264 267 273 270 267 268 277 280 279 265 268 271 288 289 288
293 291 285 281 272 266 265 270 269 289 293 290 302 303 297 287 286 302 313 316 309 308 292 283 279 271 265 263 264 263 264 267 269 271 272 272 275 284 285 283 270 270 282 285
281 277 277 279 284 287 286 283 274 283 296 305 302 307 304 306 304 296 299 309 315 303 297 286 279 275 266 264 260 258 264 262 264 267 269 268 271 276 278 278 282 281 280 284
287 286 285 284 281 278 277 272 274 271 295 299 293 301 306 311 307 309 297 298 302 303 294 289 282 274 265 260 257 256 264 264 261 264 260 264 274 278 277 279 280 280 280 281
Height
821 818 817 818 817 814 817 816 830 822 816 809 813 815 818 821 824 824 825 828 833 835 834 831 829 827 827 825 823 822 819 817 815 813 812 811 812 811 812 811 809 807 804 803
836 817 821 826 820 816 811 809 809 813 817 805 816 822 827 830 829 826 830 835 837 834 831 829 828 826 824 821 818 816 818 814 812 807 807 808 806 807 808 807 805 803 802 800
844 839 839 840 823 813 812 810 815 825 817 816 824 825 827 829 828 833 837 837 835 833 830 828 827 825 822 818 815 812 810 807 803 805 803 802 799 800 803 802 802 800 798 796
853 853 852 815 807 807 813 810 809 809 813 821 828 828 827 833 838 839 839 838 836 831 828 826 824 822 819 816 813 810 806 800 797 796 795 795 796 796 798 798 798 796 794 792
857 846 832 818 814 822 824 825 813 816 821 826 828 832 831 837 839 839 837 834 830 828 826 823 821 819 818 815 813 808 803 801 799 795 795 794 794 797 795 794 793 792 792 790
861 858 850 820 811 815 817 831 820 826 829 834 836 839 836 839 839 836 833 830 828 825 823 821 820 819 817 815 813 809 804 803 799 798 794 792 792 797 794 792 791 789 789 788
853 856 840 816 813 816 835 836 828 829 832 837 840 840 840 837 834 833 831 829 826 823 821 820 818 817 816 813 810 807 804 802 799 798 796 792 793 793 790 789 789 788 786 786
849 851 845 812 814 831 824 823 827 832 837 838 838 835 833 832 832 831 829 827 825 822 821 819 818 816 812 810 808 806 804 801 798 796 794 792 791 790 788 787 786 786 785 784
830 827 811 807 814 819 822 825 832 834 838 837 835 832 831 832 830 828 827 825 824 822 820 818 815 812 810 808 807 805 803 801 798 796 793 791 790 788 786 786 785 786 786 784
815 809 806 807 811 819 824 828 830 833 834 833 831 832 832 829 828 827 826 825 823 821 818 814 812 809 809 807 805 804 802 800 797 794 791 790 788 787 787 786 786 786 785 783
807 801 802 805 815 821 824 828 832 833 828 831 832 830 829 828 826 825 825 823 821 818 815 813 811 809 808 807 805 804 802 800 797 794 792 790 789 788 788 787 786 786 784 782
811 801 805 812 819 822 824 829 830 828 828 830 830 829 827 827 826 825 822 821 818 816 813 811 810 808 807 805 804 803 802 800 797 795 793 791 790 789 788 787 786 784 782 780
802 805 812 818 821 822 822 823 825 828 828 828 828 828 828 827 826 825 823 820 816 814 812 810 808 806 804 802 801 801 801 799 797 794 792 791 791 790 788 786 784 782 780 778
805 811 816 818 819 819 821 822 824 825 827 828 829 829 829 828 827 825 823 819 815 811 811 810 806 804 801 801 799 799 798 797 795 794 792 791 791 790 788 786 783 781 778 777
808 811 814 818 820 819 821 822 824 825 827 828 829 830 830 828 826 823 820 817 813 810 807 805 804 802 801 798 797 796 794 793 793 793 791 790 789 788 786 785 783 780 778 777
809 809 812 814 815 819 822 824 826 826 827 829 829 830 829 828 824 821 817 814 811 806 803 801 799 798 797 796 795 793 792 790 791 790 789 788 787 786 784 783 781 779 777 775
806 810 813 817 819 822 824 826 827 828 829 828 828 827 825 822 819 817 813 810 807 802 798 796 794 794 794 793 792 791 790 788 788 787 787 786 785 783 782 781 779 777 775 773
807 812 817 820 822 823 825 827 829 828 828 827 825 823 821 819 816 812 809 805 802 799 794 790 790 789 790 789 789 788 788 787 786 785 784 783 782 781 780 778 776 775 773 772
813 817 820 821 822 824 826 827 827 825 824 822 821 819 817 814 812 809 805 802 797 793 788 786 785 785 786 786 785 786 786 784 783 782 781 780 778 778 777 775 773 772 771 769
817 819 821 822 823 824 824 824 823 821 820 819 817 815 812 810 808 804 801 798 794 788 785 782 781 781 782 782 782 782 782 781 780 779 777 776 775 774 773 772 770 769 768 766
820 820 821 822 822 822 821 820 819 817 816 816 814 812 810 806 803 800 797 792 788 784 781 779 778 778 779 779 778 778 777 777 776 775 774 773 772 770 769 769 767 766 764 763
818 818 819 818 818 818 818 817 815 813 812 811 810 808 805 802 798 795 794 789 782 780 778 776 775 775 775 775 775 775 774 773 772 772 770 769 768 767 766 765 764 763 761 760
815 815 815 815 814 813 813 812 810 809 807 806 804 803 800 796 795 791 786 783 779 776 774 772 771 770 771 771 770 770 769 769 768 767 766 765 764 763 762 761 761 760 758 757
812 812 811 811 810 809 808 805 804 803 801 800 800 798 795 791 789 787 783 779 775 772 769 768 767 766 766 766 765 764 764 763 763 762 761 760 759 758 757 756 755 755 754 753
809 808 807 806 805 804 801 799 798 798 796 795 795 792 789 787 784 780 777 773 769 766 764 762 762 761 761 760 759 759 758 757 757 757 756 755 755 754 753 752 751 750 749 749
806 804 802 801 801 799 797 795 793 792 791 790 789 787 784 781 778 774 771 768 764 761 758 757 755 755 754 753 753 752 752 751 751 750 750 750 750 749 748 748 747 746 745 744
802 800 798 796 794 793 791 789 788 787 787 787 784 782 779 776 772 769 765 762 759 756 753 750 748 747 746 745 745 745 745 744 744 744 744 744 744 744 744 743 742 741 740 740